Weather History for Gallup, NM

Change the Weather History Date:

Saturday, July 19, 2014

  Actual Average Record
Temperature  
Mean Temperature 76 °F -  
Max Temperature 91 °F 86 °F 114 °F (1998)
Min Temperature 62 °F 52 °F 43 °F (1993)
Cooling Degree Days 12    
Growing Degree Days 26 (Base 50)    
Moisture  
Dew Point 41 °F    
Average Humidity 30    
Maximum Humidity 48    
Minimum Humidity 15    
Precipitation  
Precipitation 0.00 in - - ()
Sea Level Pressure  
Sea Level Pressure 29.66 in    
Wind  
Wind Speed 4 mph (WSW)    
Max Wind Speed 15 mph    
Max Gust Speed 20 mph    
Visibility 10 miles    
Events      
Averages and records for this station are not official NWS values.
T = Trace of Precipitation, MM = Missing Value Source: NWS Daily Summary

Daily Weather History Graph

Daily Weather History Graph

Search for Another Location

Airport:

Trip Planner

Search our weather history database for the weather conditions in past years. The results will help you decide how hot, cold, wet, or windy it might be!

Date:

Astronomy

Jul. 19, 2014 Rise Set
Actual Time 6:13 AM MDT 8:28 PM MDT
Civil Twilight 5:45 AM MDT 8:57 PM MDT
Nautical Twilight 5:09 AM MDT 9:32 PM MDT
Astronomical Twilight 4:30 AM MDT 10:11 PM MDT
Moon 12:44 AM MDT (7/19) 2:18 PM MDT (7/19)
Length of Visible Light 15h 12m
Length of Day
14h 14m
Last Quarter, 43% of the Moon is Illuminated
Jul 19
Last Quarter
Jul 26
New
Aug 3
First Quarter
Aug 10
Full
Aug 17
Last Quarter

Hourly Weather History & Observations

Time (MDT) Temp. Dew Point Humidity Pressure Visibility Wind Dir Wind Speed Gust Speed Precip Events Conditions
12:53 AM 66.9 °F 44.1 °F 44% 29.62 in 10.0 mi Calm Calm - N/A   Clear
1:53 AM 66.0 °F 42.1 °F 42% 29.60 in 10.0 mi Calm Calm - N/A   Clear
2:53 AM 64.9 °F 42.1 °F 43% 29.61 in 10.0 mi South 3.5 mph - N/A   Clear
3:53 AM 64.0 °F 43.0 °F 46% 29.63 in 10.0 mi SSW 4.6 mph - N/A   Clear
4:53 AM 63.0 °F 43.0 °F 48% 29.62 in 10.0 mi Calm Calm - N/A   Clear
5:53 AM 62.1 °F 42.1 °F 48% 29.66 in 10.0 mi Calm Calm - N/A   Clear
6:53 AM 62.1 °F 42.1 °F 48% 29.70 in 10.0 mi Calm Calm - N/A   Clear
7:53 AM 66.9 °F 44.1 °F 44% 29.66 in 10.0 mi Calm Calm - N/A   Clear
8:53 AM 73.0 °F 43.0 °F 34% 29.69 in 10.0 mi SSW 11.5 mph - N/A   Clear
9:53 AM 77.0 °F 44.1 °F 31% 29.70 in 10.0 mi SW 11.5 mph - N/A   Clear
11:53 AM 84.0 °F 42.1 °F 23% 29.69 in 10.0 mi WSW 11.5 mph 18.4 mph N/A   Clear
12:53 PM 86.0 °F 41.0 °F 20% 29.66 in 10.0 mi SW 10.4 mph - N/A   Clear
1:53 PM 88.0 °F 39.9 °F 18% 29.65 in 10.0 mi SW 12.7 mph 18.4 mph N/A   Clear
2:53 PM 88.0 °F 37.0 °F 16% 29.63 in 10.0 mi SW 6.9 mph - N/A   Clear
3:53 PM 90.0 °F 36.0 °F 15% 29.61 in 10.0 mi WNW 4.6 mph - N/A   Scattered Clouds
4:53 PM 91.0 °F 37.9 °F 15% 29.59 in 10.0 mi NNW 8.1 mph - N/A   Mostly Cloudy
5:53 PM 89.1 °F 39.0 °F 17% 29.59 in 10.0 mi NNE 15.0 mph 19.6 mph N/A   Clear
6:03 PM 90.0 °F 37.0 °F 15% 30.16 in 10.0 mi ENE 6.9 mph - N/A   Clear
6:53 PM 86.0 °F 37.9 °F 18% 29.62 in 10.0 mi North 12.7 mph - N/A   Clear
7:53 PM 84.0 °F 39.0 °F 20% 29.61 in 10.0 mi NNE 5.8 mph - N/A   Mostly Cloudy
9:53 PM 75.9 °F 41.0 °F 29% 29.62 in 10.0 mi WSW 3.5 mph - N/A   Mostly Cloudy
10:53 PM 75.0 °F 39.9 °F 28% 29.63 in 10.0 mi SW 6.9 mph - N/A   Scattered Clouds
11:53 PM 73.9 °F 39.9 °F 29% 29.62 in 10.0 mi West 4.6 mph - N/A   Mostly Cloudy